Location: Newark
(36.2350°N, 59.6408°E)
Time: 02:30:51
(UTC+00:00)

ISS - Pass Details

Date: 23 November 2019
Orbit: 411 x 421 km, 51.6° (Epoch: 08 December)

Event Time Altitude Azimuth Distance (km) Brightness Sun altitude
Rises 15:06:09 0° 273° (W) 2,352 1.3 -27.3°
Reaches altitude 10° 15:08:57 10° 298° (WNW) 1,494 -0.3 -27.9°
Enters shadow 15:09:43 13° 310° (NW) 1,343 -0.7 -28.1°
